Location: *
(28.3744°N, 81.5492°W)
Time: 03:58:00
(UTC+00:00)

ACS3 Solar Sail - Pass Details

Date: 15 June 2025
Orbit: 912 x 1023 km, 97.5° (Epoch: 11 July)

Event Time Altitude Azimuth Distance (km) Brightness Sun altitude
Rises 09:30:42 0° 34° (NE) 3,547 6.2 -11.8°
Maximum altitude 09:37:44 17° 94° (E) 2,122 4.4 -10.5°
Drops below altitude 10° 09:41:25 10° 134° (SE) 2,607 4.2 -9.8°
Sets 09:44:45 0° 153° (SSE) 3,559 4.7 -9.2°
